マクノート彗星

336P/McNaught (2017)

English version
Home page
Updated on October 8, 2017

---------------------------------------------------------------------

・ プロフィール

符号 336P/2016 B2
検出日 2016年1月18日
検出光度 21.8等
検出者 Pan-STARRS 1 telescope (Haleakala)

・ 写真集

・ 軌道要素

Epoch 2017 Feb. 16.0 TT = JDT 2457800.5
T 2017 Feb. 3.05537 TT                                  MPCW
q   2.7815513            (2000.0)            P               Q
n   0.08755397     Peri.  308.49076     -0.36161649     +0.89242437
a   5.0228724      Node   298.25798     -0.73124086     -0.45103016
e   0.4462230      Incl.   17.83918     -0.57837731     +0.01226935
P  11.26
From 136 observations 2006 Apr. 5-2016 Apr. 12, mean residual 0".5.

・ 光度変化

        m1 = 12.0 + 5 logΔ + 10 log r

---------------------------------------------------------------------

軌道要素はM.P.E.C. 2016-H35に掲載されたものです。
光度グラフはComet for Windowsで作成したものです。

---------------------------------------------------------------------

Copyright(C) Seiichi Yoshida (comet@aerith.net). All rights reserved.